{"data":{"norad_id":53579,"intl_designator":"2022-101BE","name":"STARLINK-4580","alt_names":[],"object_type":"PAYLOAD","status":"ACTIVE","operator":null,"country":"US","launch_date":"2022-08-19","launch_site_code":"AFETR","launch_vehicle":null,"mission":null,"orbit_class":"UNKNOWN","rcs_meters":null,"size_class":null,"mass_kg":null,"dimensions":null,"purposes":["comms"],"wikipedia_slug":null,"has_3d_model":false,"image_url":null,"decayed_at":null,"tle_current":{"epoch":"2026-05-25T01:58:51.241728Z","epoch_age_seconds":74825,"freshness":"FRESH","line1":"1 53579U 22101BE  26145.08253752 -.00000242  00000+0  28694-5 0  9997","line2":"2 53579  53.2139  70.7724 0001635  86.9864 273.1315 15.08839542207980","mean_motion":15.08839542,"eccentricity":0.0001635,"inclination_deg":53.2139,"raan_deg":70.7724,"arg_perigee_deg":86.9864,"mean_anomaly_deg":273.1315,"bstar":2.8694e-6,"rev_number":20798,"period_min":95.437583647314,"perigee_km":538.61371521475,"apogee_km":540.87586255971,"semimajor_km":6917.8817888872,"source":"CELESTRAK","updated_at":"2026-05-25T13:38:17.473165Z"}}}